Regional Weather Roundup
Issued by NWS Charleston, SC

Current Version | Previous Version | Text Only | Print | Product List | Glossary Off
Versions: 1 2 3 4 5 6 7 8 9 10 11 12 13 14 15 16 17 18 19 20 21 22 23 24 25 26 27 28 29 30 31 32 33 34 35 36 37 38 39 40 41 42 43 44 45 46 47 48 49 50

325
ASUS42 KCHS 102227
RWRCHS

REGIONAL WEATHER ROUNDUP
NATIONAL WEATHER SERVICE CHARLESTON SC
500 PM EST SUN DEC 10 2017

NOTE: "FAIR" INDICATES FEW OR NO CLOUDS BELOW 12,000 FEET WITH NO
SIGNIFICANT WEATHER AND/OR OBSTRUCTIONS TO VISIBILITY.

NOT ALL STATIONS ARE QUALITY CONTROLLED. USE DATA WITH CAUTION...
ESPECIALLY DEWPOINT OBSERVATIONS.

SCZ027-030-031-034>040-042>050-102300-
...SOUTHEAST SOUTH CAROLINA...

CITY           SKY/WX    TMP DP  RH WIND       PRES   REMARKS
N CHARLESTON   CLEAR     46  27  47 SW7       30.21S
WATERFRONT PRK   N/A     49  30  47 SW5       30.06F
JOHNS ISLAND   FAIR      43  32  65 S3        30.22S
PINOPOLIS        N/A     48  28  46 W7        30.13S
MONCKS CORNER  FAIR      41  28  60 CALM      30.20S
SUMMERVILLE    FAIR      45  30  57 SW3       30.21S
BEAUFORT MCAS  CLEAR     47  29  49 W3        30.23R
BEAUFORT ARPT  FAIR      45  32  61 S3        30.23R
HILTON HEAD IS CLEAR     48  28  46 W6        30.24R
WALTERBORO     CLEAR     43  28  56 CALM      30.22S
ALLENDALE      FAIR      45  27  49 CALM      30.21R

...SOUTHERN MIDLANDS AND PEE DEE...

CITY           SKY/WX    TMP DP  RH WIND       PRES   REMARKS
GEORGETOWN     FAIR      43  28  56 CALM      30.21R
KINGSTREE      FAIR      43  27  52 CALM      30.19S
ORANGEBURG     CLEAR     46  25  43 W6        30.19S
BARNWELL         N/A     46  28  49 SW6       30.21R
AIKEN          FAIR      41  25  52 SW3       30.22R
MANNING        FAIR      41  30  65 MISG      30.20R
COLUMBIA       CLEAR     48  26  42 SW6       30.18R
SUMTER         CLEAR     46  24  43 SW6       30.16R
FLORENCE       CLEAR     45  27  49 SW7       30.18S
MYRTLE BEACH   CLEAR     45  26  47 W6        30.20S
N MYRTLE BEACH CLEAR     46  25  43 W5        30.18S

$$

GAZ063-065-086>088-099>101-113>116-118-119-134>141-150-102300-
...SOUTHEAST GEORGIA...

CITY           SKY/WX    TMP DP  RH WIND       PRES   REMARKS
SAVANNAH ARPT  CLEAR     48  27  44 W6        30.24R
HUNTER AAF     CLEAR     48  28  45 W8        30.21S
FORT STEWART   CLEAR     49  26  42 W6        30.22S
STATESBORO     CLEAR     46  25  43 CALM      30.23S
SYLVANIA       CLEAR     47  31  54 CALM      30.23S
CLAXTON        FAIR      44  35  69 CALM      30.24S

...CSRA...CENTRAL AND FAR SOUTHEAST GEORGIA...

CITY           SKY/WX    TMP DP  RH WIND       PRES   REMARKS
THOMSON        CLEAR     45  24  43 NW6       30.25S
AUGUSTA-BUSH   CLEAR     49  23  36 W7        30.20R
AUGUSTA-DANIEL CLEAR     49  21  33 SW5       30.20R
SWAINSBORO     FAIR      46  28  49 W3        30.23S
VIDALIA        CLEAR     48  30  49 CALM      30.24R
EASTMAN        FAIR      48  15  26 W5        30.28R
HAZLEHURST     FAIR      48  10  21 CALM      30.24S
ALMA           CLEAR     50  25  37 W6        30.25S
WAYCROSS       CLEAR     48  22  35 W5        30.26R
JESUP          FAIR      48  30  49 CALM      30.26R
BAXLEY         FAIR      46  27  46 W3        30.24F
BRUNSWICK      CLEAR     46  28  49 W5        30.26R
SAINT SIMONS   CLEAR     50  28  42 W5        30.25R

$$

SCZ027-028-034-036>038-045-046-048>050-GAZ119-141-102300-
...LAKE AND SUPPLEMENTAL COASTAL OBSERVATIONS...

STATION/POSITION TIME  TEMP    WIND        PRES    WAVE   SWELL
                       AIR SEA DIR/SP/G            HT/PER HT/PER/DIR
                 (UTC) (F)     (DEG/KT/KT) (MB)    (FT/S) (FT/S/D)
WINYAH BAY       2130   48     250/  5     1023.0S
LAKE MURRAY      2130   48     250/  5/ 10 1021.0S
ACE BASIN NERRS  2145   47     230/  1     1023.0S
FORT PULASKI     2200   48 56  260/  4/  6 1024.0
SAPELO ISLAND    NOT AVBL

$$

ANZ835-935-AMZ111-154-330-350-352-354-370-450-454-472-102300-
...C-MAN AND BUOY OBSERVATIONS...

STATION/POSITION TIME  TEMP    WIND        PRES    WAVE   SWELL
                       AIR SEA DIR/SP/G            HT/PER HT/PER/DIR
                 (UTC) (F)     (DEG/KT/KT) (MB)    (FT/S) (FT/S/D)
BUOY 41004       2210      74  250/  6/ 10 1022.9
BUOY 41008       2150   49 62  260/  6/ 10 1024.1S   1/10   2/ 90/10
FOLLY BEACH CMAN 2200   45     230/  6/  8 1023.8R
CAPERS NEARSHORE 2208   44     230/ 10/ 14 1022.8R
FRIPP NEARSHORE  2208   44 57  210/  8/ 12 1023.4R


STATION/POSITION TIME  TEMP    WIND        PRES    WAVE   SWELL
                       AIR SEA DIR/SP/G            HT/PER HT/PER/DIR
                 (UTC) (F)     (DEG/KT/KT) (MB)    (FT/S) (FT/S/D)
5E ST. MARYS GA  2200      60                N/A     1/12
FRYING PAN BUOY  2210   47 63  290/ 10/ 14 1022.3
BUOY 41025       2210   45 68  290/ 10/ 14 1021.5
CAPE LOOKOUT NC  2200          270/  7/  9 1021.9R
BUOY 41002       2150   58 76  320/ 12/ 16 1020.9R   8/ 8   7/310/ 8
BUOY 41010       NOT AVBL
ST AUGUSTINE FL  2200   52 62  280/  5/  7 1024.8S


$$




USA.gov is the U.S. government's official web portal to all federal, state and local government web resources and services.